Home   Weather   Tiruvarur   Past weeks

Flag for India Past Weather in Tiruvarur, Tamil Nadu, India — Yesterday and Last 2 Weeks

Now
84 °F

Haze.


Feels Like: 87 °F
Forecast: 83 / 99 °F
Wind: No wind

Location: Tiruchchirapalli

Current Time: Apr 29, 2017 at 3:36:13 am

Latest Report: Apr 29, 2017 at 3:00 am


Visibility: 2 mi

Pressure: 29.77 "Hg

Humidity: 58%

Dew Point: 68 °F

Location of TiruvarurLocation

Past Weather in Tiruvarur — Graph

°F

Tiruvarur Temperature Yesterday

Maximum temperature yesterday: 108 °F (at 3:30 pm)
Minimum temperature yesterday: 82 °F (at 4:30 am)
Average temperature yesterday: 93 °F

High & Low Weather Summary for the Past Weeks

 TemperatureHumidityPressure
High108 °F (Apr 17, 3:00 pm)89% (Apr 27, 6:00 am)29.86 "Hg (Apr 27, 6:00 am)
Low81 °F (Apr 27, 6:00 am)20% (Apr 15, 5:30 pm)29.59 "Hg (Apr 15, 3:00 pm)
Average92 °F53%29.73 "Hg
* Reported Apr 14 2:30 am — Apr 29 2:30 am, Tiruvarur, Weather by CustomWeather, © 2017

Note: Actual official high and low records may vary slightly from our data, if they occured in-between our weather recording intervals... More about our weather records

Advertising

Tiruvarur Weather History for the Previous 24 Hours

Scroll right to see more
 ConditionsComfort  
Time TempWeatherWind HumidityBarometerVisibility
2:30 am
Sat, Apr 29
84 °FHaze.No wind58%29.77 "Hg2 mi
2:00 am86 °FHaze.No wind52%29.77 "Hg2 mi
1:30 am88 °FHaze.No wind49%29.77 "Hg3 mi
1:00 am88 °FHaze.No wind49%29.77 "Hg3 mi
12:30 am88 °FHaze.No wind49%29.77 "Hg3 mi
12:00 am88 °FHaze.3 mph49%29.77 "Hg3 mi
11:30 pm
Fri, Apr 28
90 °FHaze.7 mph46%29.77 "Hg3 mi
11:00 pm90 °FHaze.6 mph46%29.77 "Hg3 mi
10:30 pm90 °FHaze.6 mph46%29.77 "Hg3 mi
10:00 pm91 °FHaze.7 mph44%29.77 "Hg3 mi
9:30 pm91 °FPassing clouds.6 mph44%29.77 "Hg4 mi
9:00 pm91 °FPassing clouds.7 mph44%29.77 "Hg4 mi
8:30 pm93 °FPassing clouds.9 mph41%29.74 "Hg4 mi
8:00 pm95 °FPassing clouds.9 mph44%29.74 "Hg4 mi
7:30 pm97 °FPassing clouds.10 mph39%29.71 "Hg4 mi
6:30 pm100 °FPassing clouds.10 mph33%29.68 "Hg4 mi
6:00 pm102 °FPassing clouds.10 mph31%29.68 "Hg4 mi
5:30 pm104 °FPassing clouds.5 mph31%29.68 "Hg4 mi
5:00 pm104 °FPassing clouds.5 mph31%29.68 "Hg4 mi
4:30 pm106 °FPassing clouds.3 mph30%29.68 "Hg4 mi
4:00 pm108 °FPassing clouds.2 mph28%29.68 "Hg4 mi
3:30 pm108 °FPassing clouds.2 mph28%29.68 "Hg4 mi
3:00 pm106 °FPassing clouds.2 mph30%29.71 "Hg4 mi
2:30 pm106 °FPassing clouds.3 mph30%29.71 "Hg4 mi
2:00 pm104 °FPassing clouds.No wind29%29.71 "Hg4 mi
1:00 pm102 °FPassing clouds.2 mph35%29.77 "Hg4 mi
12:30 pm100 °FHaze.3 mph37%29.77 "Hg3 mi
12:00 pm99 °FHaze.3 mph39%29.80 "Hg3 mi
11:30 am97 °FHaze.3 mph42%29.80 "Hg3 mi
11:00 am95 °FHaze.5 mph50%29.83 "Hg2 mi
10:30 am93 °FHaze.5 mph53%29.83 "Hg2 mi
10:00 am91 °FHaze.7 mph59%29.83 "Hg2 mi
9:30 am90 °FHaze.3 mph63%29.86 "Hg2 mi
9:00 am88 °FHaze.5 mph66%29.86 "Hg2 mi
8:30 am88 °FHaze.3 mph66%29.86 "Hg2 mi
8:00 am86 °FHaze.3 mph70%29.83 "Hg2 mi
7:30 am84 °FHaze.No wind74%29.83 "Hg2 mi
7:00 am84 °FHaze.No wind74%29.80 "Hg2 mi
6:30 am84 °FHaze.No wind74%29.80 "Hg2 mi
6:00 am84 °FHaze.No wind74%29.80 "Hg2 mi
5:30 am84 °FHaze.No wind74%29.80 "Hg2 mi
5:00 am82 °FHaze.No wind74%29.77 "Hg2 mi
4:30 am82 °FHaze.No wind74%29.77 "Hg2 mi
4:00 am84 °FHaze.No wind70%29.77 "Hg2 mi
3:30 am84 °FHaze.3 mph70%29.77 "Hg2 mi
3:00 am84 °FHaze.3 mph70%29.77 "Hg2 mi
Weather by CustomWeather, © 2017

See weather overviewHow to use our weather pages